WX8ASH-13 Weather Reports


time (UTC)temp
C
wind
direction
speed
KPH
gust
KPH
rain 1hr
cm
rain 24hr
cm
rain mn
cm
humidity
%
barometer
mb
20260502114542 1 294 0.0 4.8 0.00 0.58 0.08 98 1017.4
20260502114042 1 294 0.0 4.8 0.00 0.58 0.08 98 1017.3
20260502113546 1 294 0.0 4.8 0.00 0.58 0.08 98 1017.4
20260502113042 1 305 0.0 9.7 0.00 0.58 0.08 98 1017.3
20260502112545 1 305 0.0 9.7 0.00 0.58 0.08 98 1017.2
20260502112042 1 288 1.6 9.7 0.00 0.58 0.08 98 1017.3
20260502111541 1 293 3.2 6.4 0.00 0.58 0.08 98 1017.2
20260502111046 1 314 4.8 6.4 0.00 0.58 0.08 98 1017.2
20260502110541 1 302 4.8 6.4 0.00 0.58 0.08 98 1017.2
20260502110042 1 322 1.6 6.4 0.00 0.58 0.08 98 1017.1
20260502105542 1 322 3.2 6.4 0.00 0.61 0.08 98 1017.1
20260502105042 1 316 3.2 6.4 0.00 0.61 0.08 98 1017.1
20260502104542 1 325 1.6 9.7 0.00 0.61 0.08 98 1017.1
20260502104040 1 318 4.8 9.7 0.00 0.61 0.08 98 1017.2
20260502103542 1 316 0.0 9.7 0.00 0.61 0.08 98 1017.1
20260502103040 1 302 6.4 8.0 0.00 0.61 0.08 98 1017.1
20260502102541 1 312 3.2 6.4 0.00 0.61 0.08 98 1017.1
20260502102042 2 305 0.0 6.4 0.00 0.61 0.08 98 1017.1
20260502101541 2 311 3.2 8.0 0.00 0.61 0.08 98 1017.0
20260502101043 2 301 1.6 8.0 0.00 0.61 0.08 98 1017.1
20260502100539 2 266 1.6 8.0 0.00 0.61 0.08 98 1017.1
20260502014032 5 4 0.0 0.0 0.00 0.53 0.53 93 1016.7
20260502013534 5 4 0.0 0.0 0.00 0.53 0.53 93 1016.7
20260502013036 6 4 0.0 0.0 0.00 0.53 0.53 92 1016.6
20260502012535 6 4 0.0 0.0 0.00 0.53 0.53 92 1016.5
20260502012036 6 4 0.0 0.0 0.00 0.53 0.53 92 1016.5
20260502011535 6 4 0.0 0.0 0.00 0.53 0.53 91 1016.5
20260502011035 6 4 0.0 0.0 0.00 0.53 0.53 91 1016.4
20260502010535 6 4 0.0 0.0 0.00 0.53 0.53 90 1016.4
20260502010104 6 4 0.0 0.0 0.00 0.53 0.53 90 1016.5
20260502005534 6 4 0.0 0.0 0.00 0.53 0.53 90 1016.5
20260502005035 6 4 0.0 0.0 0.00 0.53 0.53 90 1016.5
20260502004534 6 4 0.0 0.0 0.00 0.53 0.53 89 1016.5
20260502004031 6 4 0.0 0.0 0.00 0.53 0.53 89 1016.5
20260502003530 6 4 0.0 0.0 0.00 0.53 0.53 88 1016.4
20260502003029 6 4 0.0 0.0 0.00 0.53 0.53 88 1016.4
20260502002529 6 4 0.0 0.0 0.00 0.53 0.53 87 1016.2
20260502002028 6 4 0.0 0.0 0.00 0.53 0.53 87 1016.1
20260502001528 6 4 0.0 0.0 0.00 0.53 0.53 87 1016.0
20260502001028 6 4 0.0 0.0 0.00 0.53 0.53 86 1015.8
20260502000527 6 4 0.0 0.0 0.03 0.53 0.53 86 1015.8
20260502000027 6 4 0.0 0.0 0.03 0.53 0.53 86 1015.7
20260501235527 6 4 0.0 0.0 0.03 0.53 0.53 85 1015.6
20260501235027 6 4 0.0 0.0 0.03 0.53 0.53 85 1015.5
20260501234527 6 4 0.0 0.0 0.03 0.53 0.53 85 1015.4
20260501234026 6 4 0.0 4.8 0.03 0.53 0.53 84 1015.4
20260501233526 6 4 0.0 4.8 0.03 0.53 0.53 83 1015.3
20260501233026 6 4 0.0 3.2 0.03 0.53 0.53 82 1015.3
20260501232526 6 323 3.2 4.8 0.03 0.53 0.53 83 1015.3
20260501232026 6 11 0.0 4.8 0.03 0.53 0.53 84 1015.3
20260501231527 6 11 0.0 3.2 0.03 0.53 0.53 83 1015.3
20260501231025 6 8 1.6 3.2 0.03 0.53 0.53 83 1015.3
20260501230525 6 8 0.0 3.2 0.00 0.51 0.51 84 1015.4
20260501230025 6 340 0.0 6.4 0.00 0.51 0.51 83 1015.5
20260501225526 6 305 0.0 8.0 0.00 0.51 0.51 84 1015.5
20260501225025 6 330 0.0 8.0 0.00 0.51 0.51 83 1015.5
20260501224524 6 311 4.8 8.0 0.00 0.51 0.51 83 1015.5
20260501224025 6 309 4.8 8.0 0.00 0.51 0.51 84 1015.6
20260501223525 6 333 0.0 6.4 0.00 0.51 0.51 85 1015.5
20260501223027 6 294 0.0 6.4 0.00 0.51 0.51 85 1015.5
20260501222524 6 6 0.0 9.7 0.00 0.51 0.51 84 1015.4
20260501222025 6 14 0.0 9.7 0.00 0.51 0.51 83 1015.3
20260501221525 6 309 0.0 9.7 0.00 0.51 0.51 84 1015.3
20260501221053 6 304 0.0 9.7 0.00 0.51 0.51 87 1015.3
20260501220524 6 287 1.6 9.7 0.00 0.51 0.51 86 1015.2
20260501220054 6 17 0.0 9.7 0.00 0.51 0.51 86 1015.1
20260501215559 6 339 0.0 9.7 0.00 0.51 0.51 85 1015.1
20260501215029 6 326 0.0 16.1 0.00 0.51 0.51 85 1015.1
20260501214528 6 325 3.2 16.1 0.00 0.51 0.51 84 1015.2
20260501214025 6 28 4.8 16.1 0.00 0.51 0.51 83 1015.1
20260501213523 6 322 3.2 16.1 0.00 0.51 0.51 83 1015.0
20260501213023 6 3 6.4 16.1 0.00 0.51 0.51 84 1015.0
20260501212522 6 1 8.0 16.1 0.00 0.51 0.51 87 1015.0
20260501212022 6 352 0.0 16.1 0.00 0.51 0.51 85 1015.0
20260501211522 6 314 8.0 16.1 0.00 0.51 0.51 87 1014.9
20260501211022 6 293 9.7 16.1 0.00 0.51 0.51 89 1014.9
20260501210522 6 340 6.4 14.5 0.00 0.51 0.51 95 1014.9
20260501210022 6 281 9.7 16.1 0.00 0.51 0.51 95 1014.8
20260501205523 5 328 6.4 16.1 0.00 0.51 0.51 96 1014.7
20260501205021 5 325 3.2 16.1 0.00 0.51 0.51 96 1014.7
20260501204521 5 352 8.0 16.1 0.00 0.51 0.51 96 1014.8
20260501204021 5 354 6.4 17.7 0.00 0.51 0.51 97 1014.7
20260501203521 5 345 6.4 17.7 0.00 0.51 0.51 97 1014.5
20260501203020 5 350 3.2 17.7 0.00 0.51 0.51 97 1014.5
20260501202523 5 359 3.2 17.7 0.00 0.51 0.51 97 1014.4
20260501202050 5 11 1.6 19.3 0.00 0.51 0.51 98 1014.4
20260501201522 5 27 0.0 19.3 0.00 0.51 0.51 97 1014.2
20260501201020 5 349 0.0 19.3 0.00 0.51 0.51 97 1014.1
20260501200520 5 8 8.0 17.7 0.03 0.51 0.51 97 1014.1
20260501200050 5 352 0.0 17.7 0.03 0.51 0.51 97 1014.0
20260501195520 5 328 8.0 17.7 0.03 0.51 0.51 97 1014.1
20260501195020 5 342 0.0 9.7 0.03 0.51 0.51 98 1014.1
20260501194550 5 332 0.0 9.7 0.03 0.51 0.51 98 1014.0
20260501194019 5 14 8.0 12.9 0.03 0.51 0.51 98 1014.0
20260501193549 5 343 0.0 12.9 0.03 0.51 0.51 98 1014.0
20260501193050 5 343 0.0 14.5 0.03 0.51 0.51 98 1013.9
20260501192519 5 340 9.7 22.5 0.03 0.51 0.51 98 1013.9
20260501192050 5 353 4.8 22.5 0.03 0.51 0.51 98 1013.7
20260501191554 5 343 6.4 22.5 0.03 0.51 0.51 98 1013.7
20260501191055 5 8 4.8 12.9 0.03 0.51 0.51 98 1013.7
20260501190555 5 307 1.6 12.9 0.00 0.48 0.48 98 1013.6
20260501190054 5 10 4.8 11.3 0.00 0.48 0.48 98 1013.6
20260501185555 5 21 4.8 11.3 0.00 0.48 0.48 98 1013.6
20260501185053 5 37 0.0 11.3 0.00 0.48 0.48 97 1013.5
20260501184554 5 325 3.2 9.7 0.00 0.48 0.48 98 1013.4
20260501184053 5 359 8.0 12.9 0.00 0.48 0.48 98 1013.4